Powrót do katalogu

FENGYUN 1C DEB

AktywnyPO
NORAD 30347·DEBRIS·🇨🇳 China

Wystrzelony May 10, 1999 z Taiyuan Satellite Launch Center

Loading…

Następne Przeloty (najbliższe 24 godziny)

TLE

ŚwieżeSource: Space-Track

Epoka: Sep 14, 2026, 09:59 UTC

1 30347U 99025ABJ 26257.41600019  .00000052  00000-0  63863-4 0  9992
2 30347  98.3998  60.5735 0149537 347.2854  40.7228 13.92896291997988

Śledź FENGYUN 1C DEB w czasie rzeczywistym z AllMySat

Download on the App Store